Regional Weather Roundup
Issued by NWS

Home | Current Version | Previous Version | Text Only | Print | Product List | Glossary On
Versions: 1 2 3 4 5 6 7 8 9 10 11 12 13 14 15 16 17 18 19 20 21 22 23 24 25 26 27 28 29 30 31 32 33 34 35 36 37 38 39 40 41 42 43 44 45 46 47 48 49 50
000
ASUS43 KMPX 170201
RWRMN
WEATHER ROUNDUP FOR MINNESOTA
NATIONAL WEATHER SERVICE TWIN CITIES/CHANHASSEN MN
900 PM CDT TUE SEP 16 2014


NOTE: "FAIR" INDICATES FEW OR NO CLOUDS BELOW 12,000 FEET WITH NO
SIGNIFICANT WEATHER AND/OR OBSTRUCTIONS TO VISIBILITY. N/A MEANS
CURRENT SKY AND/OR WEATHER CONDITIONS ARE NOT AVAILABLE.

MNZ060>063-068>070-170300-
   Twin Cities Metro

CITY           SKY/WX    TMP DP  RH WIND       PRES   REMARKS
TWIN CITIES    PTCLDY    59  46  62 SE5       30.02S
ST PAUL        CLEAR     53  49  86 CALM      30.03S
CRYSTAL        MOCLDY    56  47  71 CALM      30.01S
LAKEVILLE      PTCLDY    54  48  82 CALM      30.03S
EDEN PRAIRIE   MOCLDY    58  46  64 SE6       30.01S
SOUTH ST PAUL  CLEAR     56  48  76 CALM      30.02S
LAKE ELMO      FAIR      50  46  87 CALM      30.03F
$$
MNZ001>005-007-008-013>017-022>024-027-028-170300-
   Northwest Minnesota

CITY           SKY/WX    TMP DP  RH WIND       PRES   REMARKS
BEMIDJI        CLEAR     56  43  63 SW5       29.97S
HALLOCK        CLEAR     55  48  76 S5        29.89S
ROSEAU         MOCLDY    55  50  82 SE5       29.91F
WARROAD        MOCLDY    55  52  88 S5        29.91F
THIEF RVR FALL CLEAR     54  43  66 S8        29.94S
CROOKSTON      CLEAR     55  43  62 S7        29.94S
FOSSTON        CLEAR     50  41  71 S5        29.97S
DETROIT LAKES  CLEAR     55  45  67 SE5       29.98S
MOORHEAD       CLEAR     59  46  63 SE5       29.95S
PARK RAPIDS    CLEAR     55  42  61 SE5       29.98S
MAHNOMEN       FAIR      53  43  67 SE6       29.96S
$$
MNZ006-009>011-018-025>026-170300-
   North Central Minnesota

CITY           SKY/WX    TMP DP  RH WIND       PRES   REMARKS
BAUDETTE       CLOUDY    54  49  83 CALM      29.92F
FLAG ISLAND    CLOUDY    57  52  82 CALM      29.90F
INTL FALLS     CLOUDY    50  49  96 CALM      29.93F
WASKISH        CLOUDY    54  52  94 CALM      29.94S
BIG FORK       CLOUDY    55  50  82 S1        29.96S
LONGVILLE      CLEAR     46  46 100 CALM      29.98F
GRAND RAPIDS   CLEAR     54  43  66 S7        29.98S
CRANE LAKE     CLOUDY    52  50  93 CALM      29.97S
ORR            CLOUDY    54  48  82 CALM      29.93F
COOK           CLOUDY    54  50  87 CALM      29.96F
WALKER         FAIR      52  42  67 CALM      29.98S
$$
MNZ012-019>021-037-170300-
   Northeast Minnesota

CITY           SKY/WX    TMP DP  RH WIND       PRES   REMARKS
DULUTH         PTCLDY    55  42  61 SW8       29.99S
ELY            MOCLDY    52  46  82 CALM      29.96F
HIBBING        PTCLDY    49  44  83 SW3       29.97S
EVELETH        PTCLDY    52  45  76 SW6       29.98S
DULUTH HARBOR  CLEAR     57  48  72 SW9       29.99S
TWO HARBORS    CLEAR     52  45  76 W3        29.96S
SILVER BAY     PTCLDY    50  50 100 CALM      29.96R
GRAND MARAIS     N/A     51  47  86 E15G24    29.99R
G MARAIS ARPRT CLOUDY    50  45  81 SE3       29.99S
$$
MNZ029>031-032-039>041-046>048-054>057-064-170300-
   West Central Minnesota

CITY           SKY/WX    TMP DP  RH WIND       PRES   REMARKS
FERGUS FALLS   PTCLDY    59  43  55 SE6       29.96S
WHEATON        CLEAR     54  48  82 SE8       29.96S
MORRIS         CLEAR     61  48  63 SE8       29.95F
ALEXANDRIA     MOCLDY    57  46  66 SE6       29.99S
ELBOW LAKE     FAIR      58  47  67 SE7       29.96S
WADENA         CLEAR     50  43  76 CALM      29.98F
GLENWOOD       PTCLDY    57  48  72 SE8       29.98F
APPLETON       CLOUDY    64  48  55 S5        29.96S
BENSON         CLOUDY    63  48  59 S6        29.98S
ORTONVILLE     CLOUDY    63  52  67 SE6       29.95S
MADISON        CLOUDY    63  54  72 S5        29.97S
WILLMAR        MOCLDY    61  50  67 SE5       30.00F
$$
MNZ033>034-036-042>043-049>051-058-059-170300-
   Central Minnesota

CITY           SKY/WX    TMP DP  RH WIND       PRES   REMARKS
ST CLOUD       CLOUDY    57  48  72 SE5       30.00S
SAUK CENTRE    CLOUDY    56  47  72 E5        29.99S
PAYNESVILLE    CLOUDY    57  48  73 E6        30.00S
AITKIN         CLEAR     50  45  81 CALM      29.99S
PINE RIVER     CLEAR     46  43  87 CALM      30.03S
BRAINERD       CLEAR     50  45  83 CALM      30.01R
STAPLES        CLEAR     48  43  81 CALM      30.00S
LONG PRAIRIE   CLOUDY    54  46  76 CALM      30.00S
LITTLE FALLS   MOCLDY    52  46  82 CALM      30.00F
LITCHFIELD     CLOUDY    61  50  67 CALM      30.01S
BUFFALO        MOCLDY    56  47  70 CALM      30.02S
MAPLE LAKE     CLOUDY    54  52  93 CALM      30.02S FOG
$$
MNZ037-044-045-052-053-170300-
   East Central Minnesota

CITY           SKY/WX    TMP DP  RH WIND       PRES   REMARKS
PRINCETON      CLEAR     52  48  87 CALM      30.02S
MORA           CLEAR     45  43  93 CALM      30.03S
CAMBRIDGE      CLEAR     54  45  71 CALM      30.00F
RUSH CITY      MOCLDY    47  45  92 CALM      30.02F
MOOSE LAKE     CLEAR     46  45  93 SW3       29.99S
HINCKLEY       FAIR      46  45  93 CALM      30.01F
CLOQUET        CLEAR     55  43  62 SW6       30.00S
MCGREGOR       CLEAR     54  45  71 S3        30.00S
$$
MNZ071>073-080-081-089-090-097-098-170300-
   Southwest Minnesota

CITY           SKY/WX    TMP DP  RH WIND       PRES   REMARKS
MONTEVIDEO     CLOUDY    63  50  63 S3        29.99S
GRANITE FALLS  CLOUDY    61  51  71 SE6       30.00S
CANBY          CLOUDY    61  51  71 SE6       29.98S
MARSHALL       CLOUDY    63  48  59 S7        29.98S
REDWOOD FALLS  CLOUDY    62  51  67 S5        30.00R
OLIVIA         CLOUDY    61  50  67 SE5       29.99S
PIPESTONE      MOCLDY    57  48  72 S7        29.99R
WINDOM         CLOUDY    59  48  67 SE6       30.01S
WORTHINGTON    CLOUDY    59  48  67 S9        30.02R
JACKSON        CLOUDY    59  48  67 SE3       30.03R
TRACY          CLOUDY    61  52  72 CALM      30.00S
SLAYTON        CLOUDY    58  50  76 CALM      30.01S
$$
MNZ065>067-074>077-082>085-091>093-170300-
   South Central Minnesota

CITY           SKY/WX    TMP DP  RH WIND       PRES   REMARKS
MANKATO        MOCLDY    57  45  62 SE6       30.02S
NEW ULM        CLOUDY    57  50  77 SE3       30.00F
ST JAMES       MOCLDY    61  48  63 SE6       30.02S
FAIRMONT       MOCLDY    54  43  66 S8        30.02S
GLENCOE        CLOUDY    58  47  66 CALM      30.00S
FARIBAULT      MOCLDY    55  46  71 CALM      30.03F
OWATONNA       MOCLDY    54  46  76 SE7       30.03F
WASECA         CLOUDY    52  43  71 SE6       30.05S
ALBERT LEA     PTCLDY    54  48  82 S3        30.04S
$$
MNZ078>079-086>088-094>096-170300-
   Southeast Minnesota

CITY           SKY/WX    TMP DP  RH WIND       PRES   REMARKS
ROCHESTER      CLEAR     52  45  77 S5        30.06S
RED WING       CLEAR     50  46  87 CALM      30.03S
STANTON        PTCLDY    51  48  87 CALM      30.02S
DODGE CENTER   CLEAR     48  45  87 S6        30.05S
WINONA         CLEAR     54  52  94 CALM      30.06S
AUSTIN         CLEAR     48  45  87 CALM      30.05S
PRESTON        CLEAR     53  49  87 S5        30.07R
$$
ABBREVIATIONS USED IN REMARKS
   TC - TEMPERATURES IN CELSIUS
  WCI - WIND CHILL INDEX
   HX - HEAT INDEX
  VSB - VISIBILITY
$$



USA.gov is the U.S. government's official web portal to all federal, state and local government web resources and services.